GFSMW_850_dewp_051.txt.gz
Dewpoint
-0 -1 -1 -1 -1 -1 -1 0 3 4 10 11 12 12 12 12 11 12 11 11 11 11 11 10 9 9 9 9 8 4 -3 -1 -1 -2 -5 -8 -11 -12 -11 -14 -14 -14 -14
-3 -1 -1 -1 -1 -1 -2 -1 1 4 6 10 10 11 11 11 10 11 11 11 11 11 11 10 9 9 10 9 8 1 -3 -1 -0 -1 -4 -11 -9 -11 -10 -12 -14 -13 -12
-4 -4 -4 -2 -2 -2 -1 -1 0 2 4 4 5 7 10 11 10 11 11 11 11 12 11 11 10 10 10 10 8 -1 -2 -1 -0 -2 -4 -12 -13 -14 -16 -14 -10 -9 -13
-4 -4 -4 -4 -5 -4 -3 -1 -0 1 1 4 4 5 8 9 11 10 11 11 11 11 11 12 10 10 10 9 6 -1 -2 -1 -1 -1 -6 -11 -15 -18 -18 -16 -15 -14 -15
-4 -4 -4 -4 -4 -4 -5 -5 -3 -1 1 4 4 4 6 8 9 10 10 11 11 12 12 11 10 10 10 7 1 -2 -1 -1 -1 -3 -8 -13 -17 -18 -18 -17 -17 -17 -18
-7 -6 -5 -5 -5 -5 -5 -5 -5 -2 -1 1 4 5 4 7 9 10 9 10 10 11 11 11 10 10 9 3 -1 -2 -1 -1 -2 -6 -10 -15 -17 -18 -17 -17 -18 -18 -18
-8 -8 -8 -7 -6 -6 -6 -6 -5 -5 -0 1 3 5 6 6 7 8 8 8 11 11 11 10 10 9 7 -0 -1 -2 -1 -2 -5 -8 -13 -16 -17 -17 -17 -17 -17 -16 -18
-8 -8 -8 -5 -4 -3 -3 -3 -4 -5 -4 1 2 4 7 9 9 9 8 10 11 11 10 10 9 6 2 -1 -2 -2 -2 -4 -8 -12 -15 -16 -16 -16 -16 -16 -16 -16 -17
-7 -7 -4 -4 -3 -3 -5 -6 -2 -3 -4 -1 5 6 8 10 9 9 11 11 10 10 10 9 7 2 -0 -3 -2 -2 -4 -7 -11 -14 -15 -15 -16 -16 -16 -16 -16 -14 -11
-5 -4 -2 -2 -2 -3 -7 -4 -2 -2 -3 4 7 7 8 10 10 10 10 10 10 9 8 7 2 -0 -4 -4 -4 -4 -7 -10 -13 -15 -15 -15 -15 -16 -16 -17 -17 -16 -13
-3 -4 -4 -3 -3 -4 -4 -1 -1 -2 0 7 8 8 9 10 10 9 8 9 9 8 6 4 3 -1 -4 -6 -4 -7 -11 -13 -14 -14 -14 -15 -15 -16 -17 -18 -17 -16 -14
-1 -3 -2 -3 -4 -5 -5 2 2 1 4 7 8 9 10 9 9 9 8 9 7 5 4 -1 -3 -3 -1 -4 -2 -1 -9 -14 -14 -14 -15 -15 -16 -17 -17 -17 -16 -15 -14
0 -1 0 -1 -2 -3 -2 4 4 4 6 6 7 9 8 9 8 8 8 6 5 2 -0 -1 -3 -6 -6 -6 -10 -13 -14 -14 -14 -14 -15 -17 -18 -18 -16 -15 -14 -13 -11
2 2 2 1 0 1 3 5 5 6 6 7 7 7 7 7 7 7 5 5 1 -2 -4 -5 -5 -4 -6 -9 -10 -13 -14 -14 -15 -17 -20 -21 -19 -16 -14 -13 -11 -9 -9
3 3 3 3 4 3 6 5 6 6 7 7 7 7 5 4 4 2 1 1 0 -4 -3 -1 1 1 -6 -12 -14 -14 -14 -15 -17 -21 -23 -22 -18 -16 -14 -10 -9 -9 -8
4 4 4 4 5 5 5 4 4 4 5 6 5 4 2 2 0 -2 -2 -3 -3 -2 -1 -2 -2 -9 -13 -14 -14 -14 -15 -18 -21 -23 -24 -22 -20 -16 -12 -9 -9 -8 -8
5 3 3 4 4 3 2 1 0 1 2 1 0 -2 -3 -4 -6 -4 -2 -4 -3 -3 -6 -7 -11 -13 -13 -14 -14 -14 -18 -22 -23 -25 -26 -24 -18 -13 -11 -11 -9 -9 -8
4 3 1 0 -1 -0 -1 -1 -1 -2 -3 -5 -6 -7 -7 -4 -1 -3 -3 -2 -2 -0 -6 -12 -8 -13 -14 -14 -14 -19 -22 -23 -24 -26 -26 -20 -17 -16 -11 -9 -8 -8 -9
-1 0 1 1 -0 -2 -4 -3 -5 -6 -7 -8 -7 -3 -1 -5 -4 -4 -4 -7 -6 -5 -6 -12 -14 -14 -14 -15 -20 -21 -22 -24 -26 -26 -21 -17 -16 -12 -8 -8 -9 -8 -9
-2 -3 -3 -3 -4 -6 -5 -5 -6 -5 -4 -4 -1 -4 -2 -3 -5 -5 -1 -1 -6 -8 -12 -15 -14 -14 -17 -20 -20 -21 -24 -23 -23 -24 -20 -16 -11 -9 -9 -8 -8 -9 -10
-4 -5 -6 -5 -5 -5 -5 -4 -2 -1 -1 -2 -0 -0 0 0 0 -0 -3 -4 -10 -15 -15 -14 -14 -19 -20 -20 -20 -20 -13 -12 -11 -15 -18 -17 -13 -9 -9 -9 -9 -10 -9
-2 -2 -3 -4 -3 -2 -1 -0 -1 -0 0 -0 -0 -0 -1 -1 -3 -3 -11 -16 -16 -16 -13 -15 -20 -21 -21 -22 -24 -22 -19 -15 -16 -17 -14 -11 -9 -9 -10 -10 -11 -10 -10
-1 -1 -1 -1 -1 -1 -0 -0 -0 -0 -0 -2 -8 -6 -1 -2 -13 -16 -17 -17 -15 -13 -17 -22 -23 -23 -25 -27 -28 -26 -23 -21 -17 -13 -10 -9 -10 -14 -17 -17 -14 -13 -12
-0 -0 -1 -1 -1 -0 0 1 -2 -7 -7 -1 -0 -2 -10 -13 -17 -18 -17 -14 -14 -20 -23 -23 -24 -26 -29 -28 -24 -23 -20 -16 -12 -10 -10 -12 -16 -17 -16 -14 -12 -11 -11
-4 -3 -2 -2 -3 -3 -2 -2 -2 -0 -0 -2 -8 -10 -13 -18 -18 -17 -13 -15 -21 -22 -23 -24 -27 -29 -27 -23 -19 -13 -11 -10 -10 -10 -15 -17 -18 -17 -13 -12 -11 -11 -10
-6 -5 -4 -5 -5 -3 -0 -1 -3 -5 -6 -8 -10 -15 -18 -18 -16 -13 -17 -21 -22 -23 -25 -27 -28 -22 -17 -14 -15 -10 -10 -10 -13 -16 -17 -17 -16 -13 -11 -11 -11 -10 -10

GFSMW_850_dewp_054.txt.gz
Dewpoint
-1 -1 -1 -1 -2 -1 1 0 1 1 8 10 11 11 11 12 12 11 12 12 11 11 10 11 11 11 10 9 8 8 8 -3 -2 -1 -3 -5 -9 -10 -12 -11 -13 -12 -12
-3 -2 -1 -1 -1 -1 -1 -1 -1 -1 0 8 9 10 9 11 9 9 11 12 11 11 10 10 11 11 10 9 9 9 8 -3 -2 -1 -3 -6 -7 -8 -11 -10 -12 -12 -11
-5 -5 -4 -2 -1 -1 -1 -1 -1 -1 -1 1 7 9 10 10 10 9 10 11 12 11 10 10 11 11 10 9 9 9 7 -3 -2 -1 -2 -6 -8 -10 -11 -13 -13 -11 -9
-4 -5 -5 -5 -5 -4 -3 -2 -2 -0 -1 0 5 7 9 9 8 8 8 10 10 11 9 10 11 11 10 9 10 9 3 -2 -1 -1 -2 -4 -7 -13 -16 -14 -13 -11 -12
-4 -5 -5 -4 -5 -5 -5 -5 -4 -3 -2 0 2 7 8 9 7 7 8 8 10 11 9 8 11 11 11 10 10 8 4 -1 -1 -1 -2 -6 -8 -12 -16 -17 -16 -15 -15
-5 -5 -5 -5 -5 -5 -4 -4 -4 -5 -4 -4 0 1 5 7 8 7 7 8 9 10 9 8 10 11 11 10 9 8 2 -1 -2 -2 -3 -7 -11 -14 -16 -17 -17 -17 -17
-7 -7 -6 -6 -5 -5 -5 -5 -5 -5 -5 -4 -1 1 1 4 5 6 7 7 8 9 8 8 10 11 10 9 9 4 -0 -2 -2 -3 -6 -7 -13 -15 -17 -17 -17 -16 -17
-4 -5 -6 -6 -7 -7 -7 -7 -7 -7 -7 -6 -5 -3 3 3 5 6 6 6 7 7 8 10 10 10 9 9 7 2 -1 -3 -4 -6 -10 -11 -14 -16 -16 -16 -16 -16 -16
-1 -2 -4 -2 -2 -4 -5 -5 -4 -4 -5 -5 -5 -5 -2 4 5 5 6 8 8 8 9 10 9 8 9 8 4 -0 -1 -4 -5 -8 -11 -14 -15 -15 -15 -15 -16 -16 -14
-1 -1 -0 -2 -2 -2 -3 -4 -5 -6 -8 -5 -3 -3 -4 3 5 6 6 7 8 9 10 9 9 7 7 4 -1 -2 -5 -6 -9 -10 -13 -14 -15 -15 -15 -16 -16 -16 -15
1 1 1 0 -2 -2 -3 -4 -5 -7 -3 -2 -2 -3 -1 7 8 7 7 8 9 10 9 9 8 4 1 -0 -3 -3 -7 -11 -12 -9 -7 -13 -15 -15 -15 -17 -17 -17 -16
1 1 1 -2 -1 -2 -4 -5 -6 -4 1 -1 -1 -1 8 10 9 7 8 10 10 9 8 7 3 0 -1 0 -4 -7 -5 -0 -6 -13 -14 -14 -15 -16 -17 -18 -17 -17 -16
1 3 3 2 2 0 -2 -3 -4 -1 2 2 2 6 9 10 9 8 9 9 8 8 5 2 1 0 -3 -6 -3 -4 -11 -13 -9 -6 -13 -15 -17 -19 -19 -17 -17 -17 -14
2 3 4 3 2 3 0 0 -2 2 6 6 6 8 8 9 9 8 8 7 6 4 1 -1 -3 -3 -7 -9 -7 -4 -2 -2 -7 -14 -17 -19 -21 -21 -18 -18 -17 -13 -10
5 5 4 3 4 5 3 3 4 6 6 7 8 8 8 8 6 6 5 4 1 -0 -1 -1 -6 -10 -5 1 2 2 -3 -9 -15 -19 -22 -22 -22 -21 -19 -15 -11 -10 -10
3 4 4 4 5 4 4 3 3 2 3 3 3 4 4 3 2 2 1 -0 -2 -4 -4 -2 -0 0 0 -1 -7 -11 -14 -16 -20 -22 -23 -24 -25 -24 -20 -16 -13 -9 -8
4 5 3 4 3 2 2 2 1 -0 -0 -0 -1 -1 -0 1 0 -1 -2 -3 -2 -1 -0 -1 -2 -6 -5 -5 -12 -14 -16 -21 -22 -23 -25 -26 -25 -22 -20 -18 -14 -9 -9
-1 -1 -0 -0 -1 -1 -1 -1 0 0 0 -2 -2 -3 -1 -2 -3 -3 -1 -1 -1 -2 -3 -2 -1 -1 -11 -14 -14 -17 -21 -21 -23 -25 -25 -23 -23 -22 -19 -10 -8 -9 -9
-0 -1 -3 -2 -1 -0 0 1 1 1 -0 -4 -6 -6 -4 -4 -2 -0 -0 -1 -2 -1 -1 -1 -7 -14 -14 -15 -18 -20 -21 -23 -24 -24 -23 -22 -22 -19 -9 -8 -8 -8 -9
-3 -2 -2 -3 -2 -3 -3 -2 -2 -4 -6 -7 -6 -3 -0 -0 0 -0 -1 -0 -0 -0 -3 -13 -14 -14 -16 -19 -19 -20 -22 -22 -25 -26 -23 -21 -18 -10 -8 -8 -8 -9 -11
-5 -5 -5 -4 -4 -4 -3 -4 -5 -2 -1 -1 0 -0 -0 -0 -0 -1 -0 -0 -3 -14 -14 -14 -15 -18 -19 -19 -20 -22 -22 -21 -22 -23 -21 -19 -14 -9 -8 -9 -10 -11 -9
-3 -4 -5 -5 -4 -5 -4 -1 -1 -1 -1 -1 -0 -0 -1 -1 -1 -0 -6 -14 -14 -14 -14 -16 -20 -21 -22 -23 -26 -27 -26 -23 -20 -18 -15 -11 -9 -10 -13 -16 -16 -10 -10
-1 -2 -2 -2 -2 -2 -0 -0 -1 -1 -1 -1 -1 -0 -0 -2 -10 -14 -15 -16 -14 -14 -17 -21 -22 -23 -25 -28 -28 -24 -21 -19 -14 -12 -10 -11 -13 -17 -18 -17 -14 -12 -11
-1 -1 -1 -1 -1 -1 -0 0 -1 -1 -0 -0 -0 -1 -10 -14 -15 -16 -16 -14 -14 -20 -22 -22 -24 -26 -27 -25 -22 -20 -18 -14 -12 -12 -15 -16 -17 -18 -16 -12 -11 -11 -11
-0 -0 0 0 0 0 -0 -1 -2 -2 -1 -1 -7 -13 -15 -16 -17 -16 -14 -16 -20 -22 -22 -24 -26 -25 -23 -18 -12 -12 -11 -10 -12 -13 -18 -19 -18 -15 -12 -11 -11 -11 -10
-0 -0 0 0 0 -0 -0 -1 -1 -1 -2 -9 -12 -15 -17 -18 -16 -13 -16 -20 -22 -23 -24 -26 -24 -18 -16 -13 -17 -18 -16 -18 -16 -17 -17 -17 -14 -11 -11 -11 -11 -10 -10

GFSMW_850_dewp_057.txt.gz
Dewpoint
-1 -1 -1 -1 -1 -3 0 1 1 -0 0 5 12 11 11 11 12 12 11 11 12 11 10 11 9 10 10 10 10 10 8 8 5 -3 -2 -3 -5 -7 -10 -11 -11 -12 -11
-3 -3 -2 -2 -1 -1 -2 -1 -0 -0 -1 -0 5 10 10 10 10 11 11 11 11 11 11 10 10 10 10 10 10 10 8 8 5 -3 -2 -4 -5 -7 -9 -10 -10 -10 -11
-4 -5 -5 -5 -3 -1 -1 -1 -1 -1 -1 -1 -1 5 10 10 10 10 10 10 10 10 11 10 9 10 11 11 11 10 9 8 6 -3 -2 -4 -5 -7 -8 -9 -10 -10 -11
-6 -4 -4 -5 -6 -6 -2 -2 -1 -2 -2 -1 -1 0 2 7 9 9 9 9 9 9 9 9 8 9 10 11 11 10 9 9 5 -2 -2 -1 -3 -7 -10 -11 -12 -12 -11
-8 -6 -5 -5 -5 -4 -5 -5 -5 -4 -3 -3 0 0 1 5 9 8 9 8 8 9 8 8 8 9 11 11 11 9 9 9 4 -1 -1 -2 -3 -5 -9 -14 -13 -13 -13
-5 -6 -5 -6 -6 -5 -5 -5 -4 -4 -4 -4 -4 -3 1 3 8 9 10 9 8 8 8 8 8 8 9 10 11 9 8 8 5 2 -2 -2 -4 -5 -9 -13 -15 -15 -16
-2 -3 -6 -5 -5 -5 -6 -6 -5 -5 -4 -4 -5 -4 -2 2 3 4 8 9 8 7 7 8 8 8 9 10 10 9 9 6 5 -0 -3 -4 -7 -7 -12 -14 -15 -16 -16
-1 -1 -2 -4 -4 -4 -5 -5 -6 -6 -6 -5 -5 -5 -5 -4 -1 2 3 6 8 7 7 7 8 8 10 10 9 7 8 6 0 -4 -6 -5 -9 -11 -14 -15 -15 -15 -16
1 -0 -0 -1 -1 -3 -3 -4 -4 -6 -7 -7 -7 -6 -5 -5 -5 0 3 5 6 8 7 7 7 9 9 9 8 6 4 2 0 -3 -3 -10 -11 -13 -14 -15 -15 -15 -15
2 1 0 1 0 -0 -1 -2 -3 -4 -4 -5 -7 -8 -8 -4 -4 -3 3 5 6 6 7 7 8 9 9 8 6 2 1 -1 -3 -6 -5 -9 -13 -14 -12 -10 -13 -15 -15
3 2 1 1 2 -0 -2 -1 -3 -4 -5 -5 -5 -6 -6 -2 -3 -2 1 8 6 6 7 8 9 9 8 6 4 2 -1 -3 -7 -6 -2 -6 -3 -11 -14 -15 -15 -16 -16
3 3 1 2 3 3 1 -0 -2 -4 -4 -5 -6 -1 -1 -1 -1 1 6 9 9 8 9 9 9 7 4 2 0 -3 -4 -3 -1 -1 -3 -6 -9 -9 -10 -15 -17 -18 -16
3 3 3 4 4 3 3 2 0 -1 -3 -3 0 3 3 3 4 8 8 9 8 9 9 8 6 1 1 -3 -5 -3 -2 -1 -2 -6 -1 -1 -9 -12 -17 -19 -19 -18 -17
4 4 4 4 4 4 4 3 2 0 1 4 5 6 6 7 8 8 8 7 8 8 7 5 3 0 -3 -3 -3 -2 -5 -6 -1 -2 -2 -5 -10 -17 -21 -21 -19 -18 -17
2 3 4 4 4 4 4 3 2 3 4 5 6 6 7 6 6 6 6 6 6 5 4 1 -4 -3 -4 -5 -7 -5 0 -0 -3 -12 -15 -19 -21 -22 -22 -21 -19 -12 -9
1 4 4 4 4 4 4 3 3 2 3 4 4 4 4 4 4 4 4 3 2 -0 -3 -3 -2 -2 -2 -0 0 -0 -2 -6 -16 -19 -20 -22 -23 -24 -24 -22 -18 -14 -9
-2 0 2 2 2 2 2 2 2 1 1 3 2 0 -0 0 -1 -1 -2 -3 -3 -3 -2 -1 -2 -0 0 -0 -0 -2 -6 -13 -16 -20 -21 -24 -25 -23 -22 -21 -19 -14 -11
-1 -1 -1 -1 -1 -1 -0 1 1 1 1 -0 -1 -2 -2 -1 -2 -3 -2 -2 -1 -1 -1 0 0 -0 -1 -3 -10 -14 -17 -19 -21 -22 -23 -21 -21 -23 -22 -17 -10 -10 -9
-1 -2 -2 -1 -1 -0 -0 0 1 2 1 1 1 1 -0 -1 -2 -1 -1 -0 -0 -0 0 -0 -0 -3 -12 -14 -16 -18 -19 -20 -21 -20 -19 -20 -22 -22 -18 -9 -8 -8 -9
-3 -2 -2 -2 -1 -2 -1 -1 -1 -1 -1 -2 -3 -3 -3 -1 -0 0 0 -0 -1 -0 -0 -2 -13 -14 -15 -17 -19 -16 -16 -18 -19 -23 -23 -21 -19 -16 -8 -8 -9 -10 -13
-4 -4 -4 -4 -4 -4 -3 -4 -5 -5 -6 -5 -4 -2 -1 -1 -0 -0 -1 -1 -1 -4 -14 -14 -15 -16 -18 -18 -17 -17 -21 -23 -26 -24 -23 -20 -15 -9 -9 -9 -11 -15 -10
-4 -5 -5 -4 -4 -4 -5 -2 -2 -3 -2 -2 -1 -1 -1 -1 -1 -1 -3 -12 -15 -15 -14 -15 -18 -20 -20 -21 -24 -26 -27 -24 -22 -21 -18 -15 -11 -12 -17 -19 -18 -12 -11
-2 -3 -4 -2 -3 -2 -1 -1 -2 -1 -1 -1 -1 -1 -1 -2 -9 -15 -16 -16 -14 -14 -17 -21 -22 -22 -24 -26 -27 -24 -21 -20 -16 -14 -12 -14 -18 -19 -19 -17 -13 -12 -11
-1 -1 -1 -1 -1 -1 -1 -1 -1 -1 -1 -1 -1 -2 -11 -15 -16 -16 -15 -14 -16 -20 -22 -22 -23 -24 -26 -24 -20 -20 -20 -17 -14 -15 -17 -18 -19 -18 -15 -12 -11 -11 -10
-0 0 0 0 -0 -0 -0 -0 -0 -1 -0 -3 -10 -14 -15 -16 -17 -16 -14 -16 -20 -21 -22 -23 -24 -23 -22 -21 -21 -14 -13 -12 -18 -16 -19 -19 -18 -13 -11 -11 -11 -10 -10
0 0 0 0 0 -0 -1 -1 -1 -1 -4 -10 -12 -16 -17 -17 -15 -14 -17 -21 -22 -22 -24 -25 -26 -24 -21 -17 -18 -17 -16 -19 -20 -20 -18 -17 -13 -11 -11 -10 -10 -10 -10

GFSMW_850_dewp_060.txt.gz
Dewpoint
-1 -1 -2 -2 -2 -2 -3 -2 -1 1 1 2 5 8 10 11 11 10 11 10 11 11 10 9 10 9 8 8 10 10 10 9 9 7 3 -3 -3 -4 -6 -9 -11 -11 -12
-2 -2 -3 -3 -2 -2 -2 -1 -2 -1 0 0 0 1 2 9 9 10 9 10 10 10 9 10 10 10 9 9 10 10 10 10 8 7 3 -4 -4 -3 -5 -8 -9 -10 -10
-6 -5 -4 -5 -5 -4 -3 -2 -1 -2 -1 -1 -0 -0 2 5 10 9 9 10 9 10 9 9 9 8 10 9 10 10 10 10 9 8 2 -3 -2 -4 -5 -7 -8 -9 -9
-6 -7 -6 -4 -4 -5 -6 -5 -2 -1 -2 -1 -1 -1 -1 0 2 4 7 9 9 8 9 9 8 8 10 10 10 10 10 10 9 8 5 -2 -3 -5 -5 -6 -7 -8 -10
-2 -4 -4 -5 -5 -4 -5 -6 -5 -3 -2 -3 -3 -2 -0 2 3 3 7 8 8 9 8 8 8 8 9 10 10 10 10 10 9 9 7 -1 -2 -3 -5 -9 -7 -10 -11
-2 -3 -5 -4 -5 -5 -5 -4 -5 -5 -5 -4 -3 -3 -3 -1 1 2 5 8 8 9 9 8 8 8 8 8 9 10 11 10 10 9 5 -1 0 -3 -5 -7 -8 -11 -12
-0 -1 -4 -5 -5 -4 -4 -4 -5 -5 -4 -4 -4 -4 -4 -4 -4 0 4 7 9 8 9 9 8 7 7 8 8 10 10 10 9 8 3 3 -2 -4 -5 -8 -11 -12 -13
2 1 -0 -2 -3 -5 -4 -3 -3 -4 -4 -5 -5 -5 -5 -4 -4 -2 -1 3 3 6 7 9 9 8 8 7 9 10 9 9 8 5 1 2 -2 -6 -9 -7 -12 -13 -14
3 2 1 0 0 1 -2 -3 -3 -3 -3 -4 -4 -5 -5 -5 -6 -6 -5 -2 2 4 6 7 8 9 8 8 10 9 9 7 5 2 1 -3 -3 -2 -11 -10 -13 -14 -14
4 3 3 1 1 2 2 -0 -1 -2 -3 -3 -4 -4 -5 -6 -7 -7 -6 -5 -3 4 6 6 7 8 9 9 9 9 8 4 1 -1 -5 -3 -9 -8 -6 -10 -5 -5 -14
4 4 4 2 2 2 3 2 -1 -1 -1 -3 -4 -5 -5 -5 -5 -5 -3 -2 -2 3 8 9 9 9 9 9 8 7 3 -2 -4 -4 -3 -7 -7 -6 -2 -3 -8 -10 -12
4 4 4 4 4 4 3 3 2 1 -1 -3 -4 -4 -4 -3 1 1 1 3 4 6 10 9 9 8 8 8 5 2 -3 -4 -2 -4 -5 -3 0 -1 -3 -3 -7 -16 -17
3 2 3 3 4 4 3 3 3 1 0 -1 -2 -2 -0 4 5 4 5 6 7 8 8 8 8 7 6 4 0 -1 -1 -3 -4 -3 -0 -1 -1 -1 -3 -5 -10 -18 -18
1 3 4 5 4 4 4 4 3 3 2 1 0 2 5 6 6 7 7 6 6 7 7 7 6 4 1 -0 -2 -5 -5 -2 -1 -1 -0 0 -0 -2 -8 -19 -19 -19 -19
0 3 3 4 4 3 3 3 3 2 2 2 2 5 5 5 5 6 5 5 4 5 5 5 2 -2 -3 -2 -1 -1 -2 -3 0 0 -0 -2 -13 -20 -22 -22 -21 -21 -23
-0 2 2 2 3 2 2 2 2 2 2 3 4 4 4 4 3 4 4 3 1 -0 -0 -0 0 -0 -2 -2 -3 -4 -0 0 0 -2 -16 -21 -22 -22 -23 -23 -22 -23 -21
-1 1 1 -0 1 1 1 1 1 -0 -0 1 2 2 2 2 2 1 -0 -0 -0 0 -0 -3 -4 -2 -1 -1 -0 -0 0 -1 -14 -18 -20 -21 -22 -23 -24 -25 -26 -24 -17
-1 -1 -1 -1 0 -0 0 0 -0 -1 -1 -2 -1 -1 -0 0 -1 -2 -3 -5 -6 -4 -3 -1 -1 -0 -0 -0 0 -6 -15 -18 -19 -20 -21 -22 -24 -25 -25 -24 -15 -10 -11
-1 -2 -2 -1 -0 0 0 1 1 0 -0 -2 -2 -2 -0 -0 -0 -1 -2 -1 -1 -1 -1 -0 -0 -0 -1 -9 -15 -17 -18 -18 -19 -21 -24 -25 -25 -24 -22 -9 -8 -9 -11
-3 -2 -2 -1 -1 -1 -1 -1 -0 -0 -1 -1 -1 -1 -1 -1 -1 -1 -1 -1 -1 -0 -1 -1 -4 -14 -15 -16 -18 -20 -19 -21 -24 -26 -24 -22 -20 -13 -8 -8 -9 -13 -17
-4 -3 -3 -3 -3 -2 -3 -4 -4 -5 -5 -4 -3 -2 -1 -1 -1 -1 -1 -1 -1 -1 -7 -14 -15 -16 -17 -19 -19 -19 -23 -26 -26 -22 -20 -19 -17 -10 -11 -11 -14 -17 -10
-4 -4 -4 -4 -4 -5 -4 -3 -4 -3 -2 -2 -2 -1 -1 -1 -1 -1 -2 -8 -15 -14 -14 -16 -18 -19 -20 -20 -23 -25 -25 -21 -22 -20 -18 -19 -21 -20 -20 -19 -17 -10 -11
-3 -4 -4 -3 -4 -2 -2 -2 -2 -2 -2 -1 -1 -1 -1 -3 -11 -15 -15 -15 -14 -15 -18 -20 -21 -22 -23 -24 -24 -22 -21 -21 -19 -19 -21 -21 -20 -20 -19 -15 -12 -11 -11
-2 -2 -2 -1 -1 -1 -1 -1 -1 -1 -1 -1 -1 -6 -14 -16 -16 -15 -14 -14 -17 -20 -21 -22 -23 -24 -23 -22 -21 -20 -20 -21 -20 -21 -20 -20 -19 -18 -14 -11 -11 -11 -10
-0 -0 -0 -0 -1 -1 -1 -1 -1 -1 -1 -5 -13 -15 -16 -16 -16 -14 -15 -18 -21 -21 -22 -23 -24 -23 -23 -22 -22 -18 -18 -16 -19 -18 -20 -19 -17 -13 -11 -11 -11 -10 -10
0 0 -0 -0 -0 -0 -0 -0 -1 -1 -8 -12 -15 -17 -17 -16 -14 -15 -19 -21 -22 -22 -23 -24 -25 -26 -23 -21 -20 -18 -18 -19 -20 -20 -19 -18 -13 -11 -11 -11 -10 -10 -10

GFSMW_850_dewp_063.txt.gz
Dewpoint
-2 -1 -1 -2 -2 -2 -2 -2 -2 0 4 6 7 7 9 9 9 9 9 9 10 10 10 10 8 5 9 9 8 9 10 10 10 9 8 7 2 -4 -4 -5 -7 -10 -11
-3 -3 -3 -2 -2 -2 -2 -2 -2 -2 -1 1 2 2 4 8 8 8 8 8 9 9 10 10 10 8 8 9 8 8 10 10 10 9 8 3 1 -4 -3 -3 -5 -8 -9
-6 -7 -8 -6 -5 -4 -3 -3 -2 -2 -1 -1 -0 1 3 4 3 3 6 7 7 8 9 9 9 10 10 10 9 8 9 10 10 9 7 3 1 -2 -3 -3 -5 -6 -8
-3 -4 -4 -5 -4 -4 -5 -5 -4 -2 -1 -1 -1 -0 0 2 1 1 1 5 5 8 9 9 9 9 9 10 10 9 9 10 10 9 9 7 3 -3 -3 -4 -4 -6 -7
-1 -2 -3 -4 -4 -4 -4 -5 -5 -5 -2 -1 -2 -1 -1 -1 -0 1 0 1 3 5 9 9 8 8 8 8 9 10 9 10 10 10 10 8 5 1 -2 -4 -4 -4 -6
-0 -1 -2 -3 -3 -3 -4 -4 -4 -5 -5 -4 -3 -3 -3 -2 -1 1 1 1 2 3 8 9 9 9 8 7 8 8 10 10 10 10 10 9 8 7 4 -3 -5 -5 -7
1 -0 -2 -3 -3 -4 -4 -4 -4 -4 -4 -4 -4 -4 -2 -1 -1 -1 -1 2 3 4 4 8 8 8 9 8 7 8 10 10 10 10 10 9 8 6 0 2 -5 -7 -9
3 2 1 0 -1 -2 -2 -4 -4 -3 -4 -4 -4 -4 -3 -3 -3 -2 -1 1 2 3 5 6 7 7 8 9 8 8 9 10 10 9 8 7 6 1 0 -5 -1 -11 -11
4 3 3 3 2 2 1 0 -2 -4 -3 -3 -4 -4 -4 -4 -4 -4 -4 -4 -3 -1 2 6 7 8 8 9 9 9 9 10 9 8 7 5 0 -3 -1 -1 -11 -10 -10
4 4 4 4 2 2 2 2 2 1 -2 -3 -3 -3 -4 -4 -5 -6 -6 -6 -6 -5 -3 0 5 7 9 10 10 10 9 9 8 7 5 -0 -4 -7 -7 -7 -6 -6 -2
4 3 3 3 4 4 4 3 3 2 0 -1 -1 -2 -4 -4 -5 -5 -5 -5 -5 -4 -0 2 3 9 9 9 10 10 9 8 7 3 -2 -6 -6 -5 -7 -5 -1 1 -1
3 3 3 3 3 4 3 2 3 3 1 -0 -1 -2 -4 -4 -5 -5 -5 -3 -1 0 4 7 8 9 9 9 8 8 7 5 -0 -5 -7 -6 -3 -3 -1 0 0 1 -2
3 3 4 4 4 3 3 4 3 3 2 2 1 0 -1 -2 -3 -1 2 3 5 7 7 7 7 7 7 8 7 5 2 -3 -6 -6 -3 -2 -1 0 0 -0 -1 -4 -13
2 3 4 3 3 3 3 3 2 2 2 2 2 1 1 1 1 5 5 6 6 6 6 6 7 6 5 4 2 -2 -4 -6 -3 -1 -1 1 0 -0 -0 -3 -14 -19 -19
1 2 3 2 2 1 1 1 2 2 2 2 3 4 4 4 4 4 4 4 4 4 4 4 4 3 1 -2 -4 -3 -3 -2 -1 0 -0 -0 -0 -4 -19 -21 -22 -22 -23
0 1 0 1 0 0 1 1 2 2 1 1 2 3 4 3 3 3 3 2 2 2 1 1 -2 -4 -3 -3 -3 -2 -0 0 -0 -0 -0 -3 -19 -21 -22 -21 -21 -21 -21
-1 -0 -1 -0 -0 0 0 1 1 2 1 1 1 1 1 2 2 1 1 1 0 0 -1 -2 -3 -2 -1 -0 -0 0 -0 -0 -1 -10 -19 -20 -20 -20 -21 -23 -24 -21 -16
-1 -1 -1 -1 -0 0 0 1 1 2 1 -0 -1 -1 -1 -1 -0 -0 -1 -0 -1 -1 -1 -1 -1 -1 -1 -1 -1 0 -2 -15 -18 -18 -19 -20 -23 -24 -25 -21 -17 -17 -15
-1 -1 -1 -1 -0 -0 -0 0 1 1 1 -0 -1 -1 -1 -1 -1 -1 -1 -2 -2 -2 -2 -2 -2 -1 -1 -3 -11 -16 -17 -16 -18 -21 -24 -25 -25 -23 -17 -10 -11 -15 -17
-2 -2 -1 -1 -2 -2 -2 -2 -1 -0 -0 -0 -1 -1 -1 -2 -2 -2 -2 -2 -2 -2 -2 -2 -2 -4 -12 -17 -19 -20 -19 -22 -25 -24 -23 -23 -23 -22 -9 -9 -14 -17 -19
-3 -2 -3 -3 -3 -4 -4 -3 -3 -4 -2 -2 -1 -1 -2 -2 -1 -1 -1 -1 -1 -2 -7 -15 -16 -17 -19 -16 -17 -21 -25 -25 -23 -22 -21 -21 -22 -20 -21 -19 -20 -19 -11
-3 -3 -3 -3 -4 -3 -3 -3 -2 -2 -2 -1 -1 -2 -1 -1 -1 -1 -4 -13 -14 -15 -16 -18 -19 -20 -20 -22 -23 -23 -21 -21 -22 -20 -20 -21 -22 -22 -21 -21 -17 -12 -12
-3 -3 -4 -4 -2 -2 -2 -2 -2 -2 -2 -2 -1 -1 -1 -5 -13 -15 -15 -14 -15 -18 -20 -21 -22 -23 -23 -22 -21 -20 -21 -20 -20 -21 -22 -22 -22 -21 -19 -14 -12 -11 -11
-3 -3 -2 -1 -1 -1 -1 -1 -1 -1 -1 -1 -1 -8 -15 -16 -15 -14 -14 -17 -20 -21 -22 -22 -23 -23 -22 -21 -18 -21 -21 -22 -22 -21 -21 -21 -20 -17 -12 -11 -11 -11 -10
-1 -1 -1 -1 -1 -1 -1 -1 -1 -1 -1 -7 -15 -16 -17 -16 -15 -14 -17 -20 -21 -22 -23 -24 -24 -23 -23 -20 -21 -20 -19 -20 -20 -21 -20 -20 -17 -12 -11 -11 -11 -10 -10
-0 -0 -1 -0 -0 -0 -0 -0 -1 -2 -10 -15 -17 -17 -17 -15 -14 -18 -20 -21 -22 -23 -24 -26 -27 -25 -23 -21 -21 -21 -20 -20 -20 -21 -20 -17 -12 -11 -11 -11 -10 -10 -10

GFSMW_850_dewp_066.txt.gz
Dewpoint
-2 -1 -2 -3 -3 -3 -3 -2 -2 -2 5 7 7 11 10 7 6 9 10 10 10 9 11 11 11 11 8 9 10 9 8 8 10 10 10 9 8 7 2 -4 -4 -5 -8
-2 -3 -3 -2 -2 -2 -2 -2 -2 -3 -2 9 2 6 10 10 8 8 8 8 7 8 9 9 10 10 9 9 9 10 9 9 10 10 6 4 5 7 4 -3 -4 -4 -6
-3 -4 -6 -6 -5 -4 -2 -2 -2 -2 -2 -1 8 9 7 6 5 5 6 8 9 9 8 9 9 9 10 9 6 8 10 9 9 10 8 6 5 2 4 1 -3 -4 -5
-1 -1 -2 -4 -5 -5 -5 -4 -3 -3 -2 -2 4 10 7 5 2 2 4 5 4 7 9 8 9 9 9 9 8 8 9 10 8 10 10 9 5 2 -0 -1 -3 -4 -5
0 0 -1 -2 -3 -4 -4 -4 -5 -4 -3 -3 -2 6 10 9 4 4 3 2 2 1 6 7 9 9 10 9 8 8 9 10 9 9 10 9 9 7 4 1 0 -2 -4
2 1 -1 -1 -2 -2 -3 -4 -4 -4 -5 -4 -3 -1 8 10 10 10 8 2 1 1 2 4 6 8 9 9 9 9 10 9 10 9 10 10 10 9 8 5 0 -2 -4
3 3 1 -0 -1 -1 -2 -3 -3 -3 -4 -4 -5 -3 -3 4 10 8 10 8 9 4 2 4 5 6 7 9 9 9 9 9 10 10 10 10 10 9 8 6 4 -0 -4
4 3 3 2 1 1 0 -1 -2 -3 -3 -3 -4 -4 -4 -4 -2 -2 5 9 9 4 4 6 8 9 9 9 7 9 9 9 9 11 10 10 9 8 7 3 1 -2 -1
4 4 3 3 3 2 2 2 1 0 -1 -3 -3 -3 -4 -4 -3 -3 -3 -2 -1 -0 0 2 4 6 9 10 10 10 10 9 10 10 10 8 8 7 5 3 1 -2 -2
4 3 3 3 3 3 3 3 3 2 2 1 -2 -2 -3 -3 -4 -4 -5 -5 -6 -6 -6 -5 -3 -0 3 6 9 10 10 10 10 9 9 7 6 5 3 3 -1 -3 -7
4 3 3 3 3 4 4 3 3 2 2 1 0 -1 -1 -2 -3 -4 -4 -4 -4 -4 -4 -4 -2 2 7 9 9 9 9 9 9 8 7 7 5 1 -2 -7 -6 -3 -3
2 3 4 4 4 3 3 3 3 3 3 2 1 1 0 -1 -2 -3 -4 -4 -4 -4 -2 -0 3 6 7 8 8 8 8 8 7 7 5 4 -2 -7 -7 -4 -1 0 1
1 2 2 3 3 3 3 3 2 2 2 2 2 2 1 1 0 -0 -1 -2 -1 1 4 6 6 7 7 7 7 7 7 6 4 1 -1 -7 -7 -4 -1 0 1 0 -0
1 1 1 2 2 2 1 1 1 2 2 2 3 3 2 2 2 2 2 4 5 5 5 5 5 6 6 6 6 5 4 2 -3 -6 -6 -3 -1 0 0 -0 -0 -2 -13
0 -0 2 1 1 1 0 1 2 2 2 2 3 3 3 4 4 4 4 4 4 4 4 4 4 4 4 3 1 -1 -2 -3 -5 -3 -1 0 0 -0 -0 -4 -18 -21 -21
-1 -1 1 0 1 1 1 1 1 1 1 1 2 3 3 3 3 3 3 2 2 2 2 1 -1 -3 -3 -3 -3 -4 -3 -1 -1 0 0 -0 -0 -14 -21 -22 -22 -23 -19
-1 -1 -0 0 0 0 1 0 1 0 -0 0 1 1 1 1 1 1 1 1 1 0 -0 -1 -2 -2 -2 -2 -1 -1 -1 -0 -0 -0 -2 -15 -20 -20 -21 -23 -25 -23 -19
-2 -2 -1 -1 -0 0 0 1 1 -0 -0 -0 -0 -0 0 0 1 0 -0 -0 -1 -1 -2 -2 -2 -2 -2 -1 -1 -1 -1 -3 -9 -18 -19 -19 -22 -24 -25 -23 -17 -17 -13
-2 -2 -1 -1 -0 -0 -1 -0 0 0 0 1 0 -0 -0 -0 -1 -1 -1 -1 -2 -2 -2 -2 -2 -2 -2 -2 -4 -11 -17 -18 -19 -22 -24 -26 -24 -22 -22 -11 -12 -10 -14
-2 -2 -1 -1 -2 -2 -2 -1 -1 -0 0 -0 -0 -1 -1 -2 -2 -2 -2 -1 -2 -2 -2 -2 -2 -7 -16 -18 -19 -21 -22 -24 -25 -24 -24 -22 -21 -20 -12 -14 -14 -19 -18
-2 -2 -2 -3 -3 -3 -3 -2 -3 -1 -1 -1 -1 -2 -1 -1 -2 -2 -2 -2 -2 -2 -6 -14 -17 -18 -11 -13 -21 -24 -24 -23 -23 -22 -20 -20 -21 -22 -22 -21 -18 -18 -11
-3 -3 -3 -3 -3 -3 -4 -3 -2 -1 -1 -1 -1 -1 -2 -2 -2 -2 -7 -11 -14 -16 -18 -19 -19 -19 -20 -22 -22 -23 -22 -24 -21 -20 -20 -21 -23 -22 -21 -20 -18 -14 -12
-3 -3 -3 -3 -2 -3 -2 -2 -1 -1 -1 -1 -1 -2 -2 -5 -14 -15 -14 -15 -18 -20 -21 -21 -22 -23 -22 -21 -20 -20 -22 -22 -22 -22 -21 -22 -22 -21 -19 -15 -12 -12 -11
-3 -3 -3 -1 -2 -2 -2 -2 -2 -2 -2 -1 -2 -8 -15 -16 -14 -14 -17 -20 -21 -22 -22 -23 -23 -23 -23 -22 -19 -19 -18 -20 -19 -20 -21 -21 -21 -18 -13 -12 -11 -11 -11
-2 -2 -1 -1 -1 -1 -1 -1 -1 -1 -1 -6 -15 -16 -16 -15 -15 -17 -20 -21 -22 -23 -23 -24 -26 -25 -22 -17 -21 -20 -16 -16 -20 -21 -21 -20 -18 -13 -12 -11 -11 -10 -10
-1 -1 -1 -1 -1 -1 -1 -1 -1 -1 -7 -16 -17 -17 -16 -14 -17 -20 -21 -22 -22 -24 -27 -28 -27 -24 -23 -22 -21 -21 -21 -21 -21 -21 -21 -19 -14 -12 -11 -11 -10 -10 -10

GFSMW_850_dewp_069.txt.gz
Dewpoint
-3 -3 -2 -2 -0 0 1 2 2 3 9 12 12 9 11 10 11 12 13 13 12 12 12 12 12 12 11 11 12 11 10 8 8 8 6 7 9 9 8 7 3 -3 -3
-4 -3 -2 -2 -2 -1 0 0 1 2 2 7 11 8 5 6 9 9 9 10 11 10 9 11 12 12 12 12 11 11 11 9 8 7 7 7 7 8 8 7 4 -2 -3
-3 -3 -3 -3 -3 -3 -1 -0 0 1 1 1 6 10 10 13 10 6 8 8 9 12 11 9 10 12 12 11 11 10 11 9 9 8 8 7 6 5 4 6 5 -1 -2
-2 -1 -1 -1 -2 -3 -3 -3 -2 -0 0 -0 1 5 10 11 11 10 8 8 8 7 8 12 11 11 12 12 11 11 10 9 9 9 8 8 7 6 3 3 2 0 -2
-0 0 1 1 0 -3 -4 -5 -5 -4 -2 -1 -1 3 7 9 11 11 11 11 10 6 5 6 8 9 11 10 11 11 11 10 9 8 9 9 9 7 3 2 2 -1 -2
1 1 2 3 3 -1 -2 -3 -3 -4 -4 -4 -3 -2 2 8 10 10 11 11 11 11 10 5 4 5 8 10 9 8 11 11 10 9 9 10 9 9 9 6 4 3 2
3 2 3 2 3 2 0 -0 -1 -1 -3 -4 -4 -4 -2 3 8 10 10 11 11 10 12 9 7 6 8 12 11 10 10 10 11 10 9 10 10 9 9 9 6 3 2
3 4 4 4 3 4 3 1 0 0 -2 -2 -2 -2 -2 -1 2 7 9 10 10 11 10 9 6 5 6 9 12 11 11 11 11 10 9 9 10 10 9 7 5 3 1
4 4 4 4 4 4 4 3 2 2 1 0 -2 -1 -0 -3 -3 -2 2 7 8 10 10 8 7 4 7 9 9 11 10 10 10 10 9 9 9 9 8 8 6 3 2
4 3 3 4 4 4 3 3 3 2 2 2 1 -1 -1 -2 -3 -3 -2 -1 2 2 -0 -3 -1 -1 1 6 9 9 9 9 8 8 9 8 8 8 6 4 6 5 2
3 3 3 4 4 3 3 3 2 2 2 2 1 1 0 -0 -1 -2 -2 -3 -3 -3 -3 -4 -3 -3 -2 1 6 8 8 8 8 8 7 7 7 7 5 3 2 2 1
3 4 4 3 3 2 2 2 2 2 2 3 2 1 1 1 1 0 -1 -1 -2 -2 -2 -2 -2 -0 2 5 6 7 7 7 7 7 6 6 5 4 3 1 -2 -2 -2
2 2 2 2 2 1 2 2 1 1 2 2 3 2 2 1 1 1 0 -0 -0 0 2 3 4 5 5 5 6 6 6 6 6 5 4 3 2 1 -5 -3 -1 0 1
2 2 1 1 1 1 1 0 1 2 2 2 3 3 3 2 2 2 2 3 3 4 5 5 5 5 5 5 5 5 4 4 3 1 -1 -3 -3 -3 -1 0 1 -0 -0
1 1 1 1 0 -0 0 1 1 1 1 2 2 3 3 3 3 3 4 4 4 4 4 4 4 4 3 2 2 2 1 0 -1 -3 -4 -3 -1 0 1 -0 -0 -5 -17
1 -0 0 -0 -0 -0 1 1 1 1 1 1 1 2 3 3 3 3 3 3 3 3 2 2 1 -0 -0 -2 -2 -3 -3 -3 -3 -1 -1 -1 -0 -1 -1 -7 -20 -24 -25
-0 -1 -0 -0 -0 -0 0 0 1 0 1 1 1 1 1 1 2 1 1 1 0 0 -0 -1 -1 -1 -2 -2 -2 -2 -1 -1 -1 -1 -2 -2 -10 -18 -21 -24 -26 -25 -23
-1 -1 -1 -0 -0 -0 1 1 1 1 0 -0 -0 -0 0 1 0 -0 -1 -1 -1 -1 -2 -2 -1 -1 -2 -2 -1 -2 -1 -1 -2 -4 -7 -18 -22 -25 -26 -25 -18 -16 -15
-2 -2 -1 -1 0 -0 -0 0 0 0 0 -0 -1 -0 -0 -1 -1 -1 -1 -1 -2 -2 -2 -2 -2 -2 -2 -2 -1 -4 -13 -18 -20 -22 -23 -24 -24 -24 -25 -19 -13 -15 -12
-2 -2 -1 -1 -1 -1 -1 -1 -0 0 0 -0 -1 -1 -2 -2 -2 -1 -2 -2 -2 -2 -2 -2 -7 -16 -18 -20 -21 -22 -19 -15 -18 -20 -22 -23 -23 -24 -24 -23 -20 -16 -18
-2 -1 -1 -2 -2 -2 -2 -1 -1 -0 -1 -1 -2 -2 -2 -2 -2 -1 -2 -2 -2 -4 -13 -16 -16 -14 -18 -22 -24 -24 -24 -22 -23 -22 -21 -21 -23 -24 -25 -25 -23 -21 -18
-1 -2 -2 -2 -3 -3 -3 -3 -1 -1 -1 -2 -1 -1 -1 -1 -2 -2 -5 -11 -15 -18 -19 -20 -21 -22 -23 -23 -23 -24 -24 -25 -24 -22 -22 -22 -24 -24 -23 -22 -20 -16 -12
-1 -2 -3 -3 -2 -3 -3 -2 -1 -1 -1 -1 -2 -2 -2 -6 -14 -14 -15 -18 -19 -20 -21 -22 -22 -22 -22 -22 -22 -22 -23 -24 -23 -22 -22 -22 -22 -22 -21 -18 -13 -12 -12
-1 -2 -2 -3 -2 -2 -2 -1 -1 -1 -1 -1 -2 -6 -15 -15 -14 -15 -18 -20 -21 -22 -22 -22 -22 -22 -21 -18 -14 -13 -12 -14 -15 -18 -21 -22 -21 -20 -15 -12 -12 -11 -11
-1 -2 -2 -1 -2 -2 -1 -2 -2 -2 -2 -2 -12 -16 -16 -15 -15 -19 -20 -21 -22 -23 -23 -26 -27 -25 -18 -20 -24 -23 -21 -20 -20 -21 -21 -21 -19 -15 -12 -11 -11 -11 -11
-1 -2 -1 -2 -2 -1 -2 -1 -1 -1 -4 -14 -17 -16 -15 -15 -17 -20 -21 -22 -23 -26 -29 -29 -27 -26 -25 -23 -22 -22 -21 -21 -21 -21 -20 -19 -16 -12 -12 -11 -11 -11 -10